Location: Calvera
(42.3882°N, 0.6137°E)
Time: 20:04:01
(UTC+00:00)

Cosmos 1833 Rocket - Pass Details

Date: 28 October 2020
Orbit: 832 x 840 km, 71.0° (Epoch: 23 November)

Event Time Altitude Azimuth Distance (km) Brightness Sun altitude
Exits shadow 03:33:50 45° 126° (SE) 1,138 3.5 -32.3°
Maximum altitude 03:34:25 46° 107° (ESE) 1,113 3.5 -32.2°
Drops below altitude 10° 03:39:47 10° 36° (NE) 2,464 5.6 -31.2°
Sets 03:42:19 0° 30° (NNE) 3,403 6.4 -30.8°
